Total_Precipitation_Accumulation
1.33 1.34 1.37 1.33 1.32 1.35 1.27 1.23 1.27 1.40 1.48 1.49 1.48 1.49 1.48 1.45 1.49 1.49 1.33 1.42 1.49 1.51 1.52 1.62 1.69 1.73 1.75 1.77 1.91 1.99 2.17 2.37 2.11 1.67 1.57 1.63 1.74 1.72 1.62 1.44 1.26 1.20 1.07
1.39 1.51 1.58 1.60 1.59 1.52 1.35 1.26 1.33 1.42 1.49 1.53 1.55 1.55 1.45 1.46 1.61 1.62 1.52 1.58 1.61 1.58 1.59 1.65 1.57 1.68 1.82 1.81 1.92 1.93 2.02 2.28 2.18 1.94 1.85 1.87 1.93 1.87 1.84 1.66 1.36 1.22 1.15
1.64 1.83 2.01 2.05 1.88 1.69 1.58 1.51 1.55 1.56 1.59 1.64 1.70 1.76 1.73 1.75 1.73 1.76 1.82 1.79 1.67 1.57 1.61 1.60 1.56 1.71 1.75 1.82 1.91 1.85 1.84 1.97 2.10 2.05 2.01 2.11 2.14 2.03 1.95 1.78 1.61 1.53 1.26
1.39 1.70 1.93 2.05 1.88 1.78 1.75 1.63 1.56 1.60 1.65 1.71 1.77 1.94 2.10 2.14 2.11 2.03 1.93 1.85 1.75 1.68 1.64 1.60 1.60 1.64 1.65 1.69 1.77 1.83 1.86 1.95 2.06 2.09 2.15 2.31 2.31 2.36 2.30 2.04 1.92 1.86 1.58
1.18 1.40 1.67 1.91 1.73 1.48 1.45 1.42 1.38 1.46 1.59 1.84 2.00 2.10 2.33 2.45 2.31 2.31 2.20 2.09 2.06 1.89 1.76 1.67 1.56 1.54 1.55 1.58 1.52 1.60 1.73 1.84 1.85 1.90 1.97 2.18 2.28 2.40 2.37 2.18 2.04 2.03 1.87
1.13 1.31 1.52 1.64 1.46 1.26 1.15 1.18 1.22 1.30 1.48 1.65 1.81 1.93 1.95 1.83 2.00 2.01 1.97 1.99 2.00 1.90 1.84 1.78 1.62 1.48 1.42 1.36 1.26 1.27 1.36 1.45 1.60 1.78 1.81 1.99 2.18 2.32 2.47 2.53 2.39 2.23 2.12
1.17 1.22 1.36 1.48 1.46 1.33 1.13 1.11 1.17 1.26 1.42 1.53 1.58 1.64 1.62 1.68 1.70 1.51 1.46 1.44 1.56 1.65 1.72 1.71 1.49 1.34 1.39 1.30 1.30 1.26 1.23 1.29 1.37 1.57 1.71 1.79 2.02 2.22 2.44 2.60 2.60 2.50 2.34
1.15 1.24 1.43 1.60 1.59 1.51 1.42 1.35 1.40 1.48 1.49 1.48 1.52 1.55 1.63 1.61 1.52 1.32 1.31 1.26 1.35 1.45 1.54 1.57 1.54 1.46 1.43 1.47 1.41 1.30 1.20 1.24 1.33 1.32 1.36 1.52 1.78 2.13 2.33 2.36 2.47 2.47 2.36
1.30 1.41 1.51 1.66 1.71 1.70 1.76 1.79 1.82 1.81 1.69 1.62 1.63 1.68 1.67 1.64 1.53 1.31 1.30 1.25 1.33 1.38 1.41 1.43 1.44 1.38 1.42 1.34 1.28 1.26 1.26 1.27 1.24 1.22 1.20 1.25 1.39 1.61 1.96 2.10 2.16 2.12 2.02
1.45 1.60 1.66 1.83 1.93 1.89 1.96 2.05 2.11 2.14 2.05 2.03 1.91 1.81 1.73 1.65 1.59 1.31 1.26 1.23 1.30 1.34 1.40 1.38 1.32 1.21 1.17 1.12 1.11 1.23 1.21 1.19 1.23 1.18 1.10 1.05 1.03 1.18 1.48 1.66 1.72 1.75 1.66
1.53 1.64 1.74 1.95 2.12 2.24 2.37 2.46 2.41 2.37 2.36 2.28 2.09 1.96 1.95 1.92 1.76 1.34 1.19 1.15 1.21 1.35 1.41 1.41 1.32 1.25 1.07 1.03 1.02 1.05 1.07 1.06 1.14 1.19 1.16 1.14 1.16 1.15 1.19 1.33 1.52 1.62 1.57
1.60 1.70 1.89 2.06 2.11 2.18 2.45 2.53 2.49 2.42 2.32 2.20 2.08 1.90 1.82 1.80 1.63 1.37 1.17 1.18 1.29 1.38 1.41 1.39 1.40 1.27 1.06 1.00 0.94 0.92 0.94 0.88 0.92 1.04 1.03 0.99 0.99 1.00 1.02 1.15 1.35 1.47 1.54
1.59 1.75 1.96 2.12 2.27 2.39 2.50 2.45 2.40 2.39 2.29 2.15 2.06 1.90 1.87 1.94 1.87 1.53 1.32 1.31 1.34 1.30 1.32 1.36 1.31 1.17 0.98 0.85 0.85 0.83 0.77 0.74 0.82 0.92 0.93 0.85 0.82 0.86 0.95 1.09 1.24 1.38 1.42
1.43 1.56 1.71 1.82 1.89 2.01 2.19 2.14 2.05 2.06 2.10 2.06 2.00 1.92 1.88 1.90 1.87 1.63 1.42 1.40 1.39 1.35 1.29 1.26 1.14 1.08 0.94 0.85 0.85 0.79 0.72 0.78 0.86 0.89 0.92 0.92 0.89 0.91 0.94 1.00 1.10 1.21 1.28
1.28 1.32 1.42 1.51 1.61 1.73 1.81 1.88 1.84 1.80 1.73 1.74 1.74 1.74 1.66 1.63 1.67 1.55 1.41 1.46 1.53 1.54 1.47 1.41 1.29 1.19 1.05 0.95 0.94 0.96 0.97 1.03 1.00 0.99 1.03 1.07 1.04 0.98 0.95 0.98 1.11 1.15 1.11
1.34 1.30 1.29 1.33 1.40 1.47 1.56 1.57 1.54 1.43 1.32 1.23 1.18 1.19 1.18 1.23 1.33 1.26 1.19 1.26 1.35 1.42 1.36 1.30 1.26 1.18 1.10 1.09 1.12 1.14 1.13 1.13 1.10 1.10 1.11 1.15 1.15 1.07 0.98 0.97 1.07 1.13 1.08
1.42 1.36 1.32 1.26 1.26 1.32 1.38 1.44 1.43 1.28 1.09 0.95 0.86 0.82 0.82 0.90 0.99 1.00 1.02 1.11 1.22 1.32 1.29 1.30 1.26 1.23 1.16 1.14 1.16 1.17 1.13 1.13 1.16 1.17 1.18 1.18 1.23 1.22 1.18 1.12 1.11 1.15 1.14
1.43 1.36 1.29 1.23 1.18 1.20 1.23 1.25 1.32 1.38 1.29 1.10 0.90 0.75 0.69 0.68 0.73 0.83 0.93 1.05 1.17 1.21 1.21 1.26 1.24 1.22 1.19 1.15 1.11 1.12 1.13 1.15 1.15 1.14 1.17 1.21 1.27 1.28 1.29 1.21 1.14 1.12 1.13
1.24 1.20 1.14 1.14 1.15 1.14 1.16 1.17 1.16 1.23 1.24 1.18 1.04 0.87 0.76 0.69 0.69 0.77 0.81 0.88 1.07 1.14 1.15 1.14 1.10 1.06 1.03 1.03 1.02 1.00 1.00 1.01 1.04 1.10 1.11 1.11 1.17 1.16 1.12 1.09 1.09 1.09 1.10
1.19 1.13 1.05 1.05 1.10 1.12 1.13 1.13 1.10 1.16 1.17 1.17 1.07 0.90 0.76 0.66 0.66 0.71 0.76 0.89 1.06 1.09 1.05 1.01 1.00 0.98 0.98 0.98 0.99 0.97 0.96 0.97 1.01 1.10 1.11 1.09 1.11 1.09 1.03 1.03 1.08 1.11 1.09
1.18 1.07 0.94 0.90 0.94 1.00 1.05 1.05 1.03 1.05 1.05 1.08 0.98 0.79 0.68 0.62 0.67 0.75 0.84 0.96 1.06 1.01 0.96 0.92 0.91 0.87 0.86 0.87 0.89 0.91 0.95 1.00 1.02 1.07 1.11 1.13 1.15 1.12 1.06 1.06 1.10 1.15 1.16
1.20 1.11 0.98 0.85 0.82 0.89 0.94 0.97 0.98 0.97 0.97 0.97 0.88 0.69 0.61 0.56 0.63 0.72 0.79 0.89 0.94 0.93 0.91 0.89 0.85 0.78 0.77 0.80 0.84 0.91 0.95 0.97 1.02 1.08 1.11 1.13 1.18 1.15 1.13 1.12 1.12 1.16 1.22
1.11 1.05 0.95 0.79 0.75 0.81 0.87 0.95 0.95 0.89 0.90 0.90 0.81 0.69 0.63 0.65 0.68 0.76 0.84 0.89 0.91 0.94 0.92 0.87 0.81 0.76 0.75 0.76 0.79 0.85 0.92 0.96 0.97 1.00 1.05 1.08 1.13 1.15 1.17 1.16 1.12 1.16 1.19
0.96 0.97 0.94 0.77 0.71 0.83 0.92 0.98 0.94 0.85 0.85 0.82 0.73 0.70 0.70 0.73 0.74 0.76 0.81 0.85 0.88 0.87 0.85 0.83 0.76 0.71 0.70 0.73 0.76 0.78 0.81 0.83 0.84 0.89 0.92 0.97 1.02 1.07 1.10 1.10 1.08 1.10 1.16
0.87 0.86 0.90 0.82 0.76 0.83 0.91 0.95 0.92 0.85 0.79 0.72 0.66 0.69 0.70 0.69 0.71 0.74 0.77 0.82 0.82 0.79 0.75 0.72 0.74 0.74 0.73 0.73 0.75 0.76 0.77 0.70 0.67 0.70 0.75 0.83 0.87 0.95 0.97 0.95 0.98 1.05 1.12
0.78 0.77 0.81 0.79 0.76 0.80 0.88 0.90 0.88 0.80 0.74 0.67 0.64 0.66 0.68 0.68 0.69 0.71 0.71 0.73 0.74 0.75 0.73 0.72 0.70 0.68 0.68 0.65 0.62 0.60 0.57 0.52 0.50 0.56 0.61 0.68 0.76 0.84 0.87 0.87 0.86 0.93 1.01